Flag for U.S.A. Weather past 2 weeks in Cedar Rapids, Iowa, U.S.A.

Now
6 °F

Passing clouds.


Feels Like: -9 °F
Forecast: -3 / 32 °F
Wind: 10 mph from South

Location: Cedar Rapids Municipal Airport

Current Time: Mar 6, 2015 at 6:00:26 AM

Latest Report: Mar 6, 2015 at 4:52 AM


Visibility: 10 mi

Pressure: 30.37 "Hg

Humidity: 79%

Dew point: 1 °F

Location of Cedar RapidsLocation

Historic Weather in Cedar Rapids — Graph

°F

Cedar Rapids temperature yesterday

Maximum temperature yesterday: 9 °F (at 2:52 PM)
Minimum temperature yesterday: -8 °F (at 5:52 AM)
Average temperature yesterday: 1 °F

Past Weeks' High & Low Weather Summary

 TemperatureHumidityPressure
High36 °F (Feb 24, 12:52 PM)100% (Mar 3, 7:52 AM)30.84 "Hg (Mar 3, 7:52 AM)
Low-18 °F (Feb 27, 4:52 AM)48% (Feb 23, 3:52 PM)29.69 "Hg (Mar 3, 10:52 AM)
Average11 °F74%30.32 "Hg
* Reported Feb 19 4:52 AM — Mar 6 4:52 AM, Cedar Rapids, Weather by CustomWeather, © 2015

Note: Actual official high and low records may vary slightly from our data, if they occured in-between our weather recording intervals... More about our weather records

Advertising

Cedar Rapids weather history for previous 24 hours

 ConditionsComfort  
Time TempWeatherWind HumidityBarometerVisibility
4:52 AM
Fri, Mar 6
6 °FPassing clouds.10 mph79%30.37 "Hg10 mi
3:52 AM5 °FClear.9 mph76%30.40 "Hg10 mi
2:52 AM5 °FPassing clouds.8 mph76%30.43 "Hg10 mi
1:52 AM4 °FClear.8 mph80%30.47 "Hg10 mi
12:52 AM3 °FClear.9 mph79%30.48 "Hg10 mi
11:52 PM
Thu, Mar 5
-1 °FClear.8 mph82%30.51 "Hg10 mi
10:52 PM-2 °FClear.6 mph83%30.55 "Hg10 mi
9:52 PM1 °FClear.5 mph79%30.57 "Hg10 mi
8:52 PM0 °FClear.3 mph79%30.57 "Hg10 mi
7:52 PM3 °FClear.No wind76%30.58 "Hg10 mi
6:52 PM6 °FClear.No wind69%30.59 "Hg10 mi
5:52 PM7 °FSunny.5 mph70%30.59 "Hg10 mi
4:52 PM9 °FSunny.6 mph66%30.59 "Hg10 mi
3:52 PM9 °FSunny.7 mph64%30.58 "Hg10 mi
2:52 PM9 °FSunny.10 mph64%30.58 "Hg10 mi
1:52 PM8 °FSunny.12 mph60%30.59 "Hg10 mi
12:52 PM7 °FSunny.13 mph63%30.61 "Hg10 mi
11:52 AM6 °FSunny.12 mph63%30.63 "Hg10 mi
10:52 AM4 °FSunny.8 mph69%30.62 "Hg10 mi
9:52 AM1 °FSunny.7 mph72%30.62 "Hg10 mi
8:52 AM-2 °FSunny.10 mph75%30.61 "Hg10 mi
7:52 AM-6 °FSunny.7 mph78%30.59 "Hg10 mi
6:52 AM-8 °FSunny.8 mph83%30.56 "Hg10 mi
Weather by CustomWeather, © 2015

See weather overviewHow to use our weather pages